Weather reports worldwide

Advertisment
Cordoba Aeropuerto (AWS), Spain (8410): temperature & dewpoint: 11.06.2019 05:00:00 - 17.06.2019 05:00:00 (CEST)Cordoba Aeropuerto (AWS), Spain (8410): wind speed: 11.06.2019 05:00:00 - 17.06.2019 05:00:00 (CEST)Cordoba Aeropuerto (AWS), Spain (8410): wind direction: 11.06.2019 05:00:00 - 17.06.2019 05:00:00 (CEST)Cordoba Aeropuerto (AWS), Spain (8410): reduced air pressure: 11.06.2019 05:00:00 - 17.06.2019 05:00:00 (CEST)Cordoba Aeropuerto (AWS), Spain (8410): visibility: 11.06.2019 05:00:00 - 17.06.2019 05:00:00 (CEST)Cordoba Aeropuerto (AWS), Spain (8410): precipitation: 11.06.2019 05:00:00 - 17.06.2019 05:00:00 (CEST)
Date & Time tt [°C] td [°C] ff [km/h] ff [kn] dd ppp [hPa] vv [km] rr [mm]
17.06.2019 05:00:00 15,7 10,0 9 5 SSW 1018,0 - -
17.06.2019 04:00:00 16,6 9,3 5 3 W 1018,1 - -
17.06.2019 03:00:00 17,6 9,5 9 5 WSW 1018,5 - -
17.06.2019 02:00:00 18,8 9,2 8 4 WSW 1018,4 - -
17.06.2019 01:00:00 20,6 9,5 11 6 SW 1018,3 - -
17.06.2019 00:00:00 22,5 8,9 13 7 WSW 1017,8 - -
16.06.2019 23:00:00 23,9 7,9 11 6 WSW 1016,9 - -
16.06.2019 22:00:00 26,0 8,0 13 7 WSW 1015,9 - -
16.06.2019 21:00:00 28,6 7,8 15 8 WSW 1015,3 - -
16.06.2019 20:00:00 30,8 7,5 15 8 W 1015,1 40 -
16.06.2019 19:00:00 31,2 5,1 16 9 W 1015,1 - -
16.06.2019 18:00:00 31,5 5,1 15 8 W 1015,3 - -
16.06.2019 17:00:00 31,4 4,2 13 7 WSW 1015,5 40 -
16.06.2019 16:00:00 29,4 6,7 11 6 W 1016,0 - -
16.06.2019 15:00:00 28,5 7,2 9 5 W 1016,6 - -
16.06.2019 14:00:00 27,9 6,6 5 3 W 1016,9 40 -
16.06.2019 13:00:00 27,3 5,0 4 2 SE 1016,9 - -
16.06.2019 12:00:00 25,9 4,9 5 3 E 1017,3 - -
16.06.2019 11:00:00 24,4 5,1 5 3 ENE 1017,6 40 -
16.06.2019 10:00:00 21,5 8,4 5 3 E 1017,6 - -
16.06.2019 09:00:00 17,0 8,3 0 0 N 1017,5 - -
16.06.2019 08:00:00 14,6 7,6 0 0 N 1017,3 40 -
16.06.2019 07:00:00 12,9 6,7 0 0 N 1017,0 - -
16.06.2019 06:00:00 12,9 7,1 4 2 WSW 1016,4 - -
16.06.2019 05:00:00 14,4 7,0 5 3 SSW 1016,4 - -
16.06.2019 04:00:00 15,7 7,5 5 3 SSW 1016,5 - -
16.06.2019 03:00:00 17,1 7,7 5 3 W 1016,7 - -
16.06.2019 02:00:00 18,3 7,4 0 0 N 1016,9 - -
16.06.2019 01:00:00 20,0 7,4 4 2 NW 1017,5 - -
16.06.2019 00:00:00 21,0 8,9 5 3 S 1017,0 - -
15.06.2019 23:00:00 22,5 9,9 9 5 WSW 1016,6 - -
15.06.2019 22:00:00 25,3 7,5 8 4 WSW 1015,9 - -
15.06.2019 21:00:00 29,4 4,8 8 4 WSW 1015,5 - -
15.06.2019 20:00:00 30,6 2,8 11 6 WSW 1015,3 50 -
15.06.2019 19:00:00 30,7 3,5 13 7 SW 1015,2 - -
15.06.2019 18:00:00 30,7 3,7 11 6 SW 1015,8 - -
15.06.2019 17:00:00 29,8 3,8 8 4 SW 1016,2 50 -
15.06.2019 16:00:00 28,3 5,2 9 5 SW 1017,3 - -
15.06.2019 15:00:00 28,1 5,6 9 5 S 1018,0 - -
15.06.2019 14:00:00 27,1 5,9 8 4 SE 1018,7 50 -
15.06.2019 13:00:00 24,9 6,1 9 5 WSW 1019,2 - -
15.06.2019 12:00:00 24,0 6,4 8 4 ENE 1019,7 - -
15.06.2019 11:00:00 21,9 7,6 8 4 ESE 1020,1 50 -
15.06.2019 10:00:00 19,9 9,2 2 1 ESE 1020,5 - -
15.06.2019 09:00:00 17,4 9,0 2 1 SE 1020,7 - -
15.06.2019 08:00:00 13,1 8,6 5 3 SSW 1020,6 40 -
15.06.2019 07:00:00 11,1 8,1 4 2 SW 1020,3 - -
15.06.2019 06:00:00 11,8 8,5 0 0 N 1019,8 - -
15.06.2019 05:00:00 12,6 8,1 4 2 SW 1019,7 - -
15.06.2019 04:00:00 13,4 8,0 4 2 SSW 1019,5 - -
15.06.2019 03:00:00 14,9 8,4 8 4 SSW 1019,6 - -
15.06.2019 02:00:00 16,0 8,5 11 6 WSW 1019,4 - -
15.06.2019 01:00:00 17,4 8,0 13 7 WSW 1019,4 - -
15.06.2019 00:00:00 18,5 7,6 16 9 WSW 1018,9 - -
14.06.2019 23:00:00 19,9 7,6 21 11 WSW 1018,4 - -
14.06.2019 22:00:00 21,1 7,7 21 11 SW 1017,4 - -
14.06.2019 21:00:00 23,3 6,8 26 14 SW 1016,3 - -
14.06.2019 20:00:00 25,2 5,9 34 18 SW 1015,3 50 -
14.06.2019 19:00:00 26,9 3,7 21 11 WSW 1014,7 - -
14.06.2019 18:00:00 26,6 3,8 21 11 WSW 1014,9 - -
14.06.2019 17:00:00 25,9 2,5 21 11 WSW 1015,0 50 -
14.06.2019 16:00:00 25,5 4,5 29 16 SW 1015,4 - -
14.06.2019 15:00:00 25,4 5,6 28 15 SW 1015,5 - -
14.06.2019 14:00:00 24,2 6,0 26 14 WSW 1015,9 40 -
14.06.2019 13:00:00 23,3 7,0 22 12 WSW 1016,0 - -
14.06.2019 12:00:00 22,0 8,8 22 12 WSW 1015,9 - -
14.06.2019 11:00:00 21,2 10,7 21 11 WSW 1015,6 40 -
14.06.2019 10:00:00 19,4 10,7 21 11 W 1015,3 - -
14.06.2019 09:00:00 18,3 11,6 18 10 W 1015,0 - -
14.06.2019 08:00:00 17,8 11,4 21 11 W 1014,2 40 -
14.06.2019 07:00:00 16,9 10,0 11 6 WSW 1013,5 - -
14.06.2019 06:00:00 17,8 9,4 9 5 SW 1012,8 - -
14.06.2019 05:00:00 19,4 9,3 13 7 WSW 1012,5 - -
14.06.2019 04:00:00 19,6 9,2 13 7 W 1012,4 - -
14.06.2019 03:00:00 19,5 8,5 8 4 W 1012,6 - -
14.06.2019 02:00:00 20,3 7,6 18 10 WSW 1012,1 - -
14.06.2019 01:00:00 22,4 7,4 16 9 WSW 1011,8 - -
14.06.2019 00:00:00 24,0 3,3 18 10 WSW 1010,6 - -
13.06.2019 23:00:00 24,8 4,5 16 9 WSW 1009,6 - -
13.06.2019 22:00:00 25,8 7,4 13 7 WSW 1008,6 - -
13.06.2019 21:00:00 26,8 7,8 16 9 WSW 1008,0 - -
13.06.2019 20:00:00 28,4 9,6 18 10 W 1007,4 40 -
13.06.2019 19:00:00 29,9 9,4 16 9 W 1007,0 - -
13.06.2019 18:00:00 30,5 10,5 16 9 WSW 1007,1 - -
13.06.2019 17:00:00 30,7 10,6 15 8 SW 1007,5 40 -
13.06.2019 16:00:00 29,0 10,2 8 4 SSW 1008,1 - -
13.06.2019 15:00:00 28,5 11,1 9 5 W 1008,7 - -
13.06.2019 14:00:00 28,3 10,5 11 6 S 1009,2 30 -
13.06.2019 13:00:00 26,5 12,2 11 6 W 1009,7 - -
13.06.2019 12:00:00 24,6 13,8 8 4 SW 1010,5 - -
13.06.2019 11:00:00 22,6 14,2 8 4 W 1010,9 20 -
13.06.2019 10:00:00 21,4 14,8 5 3 SW 1011,0 - -
13.06.2019 09:00:00 19,8 14,4 4 2 S 1011,0 - -
13.06.2019 08:00:00 17,3 13,5 8 4 S 1010,8 20 -
13.06.2019 07:00:00 15,8 12,5 4 2 SW 1010,4 - -
13.06.2019 06:00:00 16,9 13,2 4 2 SSW 1010,5 - -
13.06.2019 05:00:00 17,6 13,5 9 5 W 1010,6 - -
13.06.2019 04:00:00 18,5 13,1 11 6 SW 1010,6 - -
13.06.2019 03:00:00 19,6 13,1 11 6 WSW 1010,4 - -
13.06.2019 02:00:00 20,5 12,5 13 7 WSW 1010,3 - -
13.06.2019 01:00:00 21,6 13,4 18 10 SW 1009,9 - -
13.06.2019 00:00:00 23,1 12,7 13 7 SW 1009,6 - -
12.06.2019 23:00:00 23,5 8,0 11 6 SSW 1008,8 - -
12.06.2019 22:00:00 25,9 6,5 9 5 SSW 1008,1 - -
12.06.2019 21:00:00 29,2 5,9 11 6 SW 1007,6 - -
12.06.2019 20:00:00 30,5 5,0 11 6 WSW 1007,4 40 -
12.06.2019 19:00:00 30,7 3,7 9 5 WNW 1007,6 - -
12.06.2019 18:00:00 31,0 4,7 8 4 W 1008,2 - -
12.06.2019 17:00:00 30,6 5,1 8 4 S 1008,7 40 106,0
12.06.2019 16:00:00 30,1 6,7 5 3 NW 1009,3 - -
12.06.2019 15:00:00 28,3 7,0 8 4 S 1010,1 - -
12.06.2019 14:00:00 27,9 9,2 8 4 NW 1010,9 50 -
12.06.2019 13:00:00 26,4 9,0 8 4 NW 1011,8 - -
12.06.2019 12:00:00 25,7 7,3 4 2 WSW 1012,4 - -
12.06.2019 11:00:00 24,2 8,6 4 2 WSW 1012,6 50 -
12.06.2019 10:00:00 21,7 9,7 5 3 SE 1012,7 - -
12.06.2019 09:00:00 18,5 9,0 4 2 SE 1012,7 - -
12.06.2019 08:00:00 14,9 8,4 2 1 S 1012,5 50 -
12.06.2019 07:00:00 12,0 6,9 2 1 W 1012,2 - -
12.06.2019 06:00:00 12,5 8,1 4 2 WSW 1011,6 - -
12.06.2019 05:00:00 13,7 8,1 4 2 SW 1011,2 - -
12.06.2019 04:00:00 14,9 7,6 4 2 SSW 1011,1 - -
12.06.2019 03:00:00 16,5 8,5 4 2 SSW 1011,1 - -
12.06.2019 02:00:00 17,3 5,9 4 2 WNW 1011,4 - -
12.06.2019 01:00:00 19,8 5,4 4 2 NNE 1011,2 - -
12.06.2019 00:00:00 22,0 2,1 11 6 SSE 1010,8 - -
11.06.2019 23:00:00 20,7 1,4 8 4 NNE 1010,3 - -
11.06.2019 22:00:00 23,7 -0,7 9 5 WNW 1009,2 - -
11.06.2019 21:00:00 28,2 -2,8 15 8 NW 1008,8 - -
11.06.2019 20:00:00 29,3 -1,0 18 10 NNW 1008,3 40 -
11.06.2019 19:00:00 30,4 -0,1 18 10 NW 1008,0 - -
11.06.2019 18:00:00 31,2 1,5 15 8 NW 1008,2 - -
11.06.2019 17:00:00 30,5 3,3 18 10 NW 1008,3 45 -
11.06.2019 16:00:00 30,6 5,1 18 10 W 1008,6 - -
11.06.2019 15:00:00 29,5 6,2 24 13 WSW 1009,0 - -
11.06.2019 14:00:00 28,0 6,1 15 8 SW 1009,8 - -
11.06.2019 13:00:00 25,7 5,8 15 8 SW 1010,8 - -
11.06.2019 12:00:00 24,0 6,7 8 4 S 1011,6 - -
11.06.2019 11:00:00 21,9 7,7 5 3 SSW 1012,0 30 -
11.06.2019 10:00:00 19,7 8,5 4 2 S 1012,2 - -
11.06.2019 09:00:00 16,9 10,5 9 5 WSW 1012,5 - -
11.06.2019 08:00:00 14,2 10,9 5 3 SSW 1012,8 25 -
11.06.2019 07:00:00 12,6 10,0 5 3 S 1012,6 - -
11.06.2019 06:00:00 13,5 10,3 4 2 W 1012,9 - -
11.06.2019 05:00:00 14,3 10,3 8 4 SW 1013,2 - -

tt = temperature
td = dewpoint
ff = wind speed
dd = wind direction
ppp = reduced air pressure
vv = visibility
rr = precipitation

Next stations